Regional Weather Roundup
Issued by NWS

Home | Current Version | Previous Version | Text Only | Print | Product List | Glossary Off
Versions: 1 2 3 4 5 6 7 8 9 10 11 12 13 14 15 16 17 18 19 20 21 22 23 24 25 26 27 28 29 30 31 32 33 34 35 36 37 38 39 40 41 42 43 44 45 46 47 48 49 50

000
ASUS43 KFSD 230910
RWRSD

WEATHER ROUNDUP FOR SOUTH DAKOTA
NATIONAL WEATHER SERVICE SIOUX FALLS SD
400 AM CDT MON APR 23 2018

NOTE: "FAIR" INDICATES FEW OR NO CLOUDS BELOW 12,000 FEET WITH NO
SIGNIFICANT WEATHER AND/OR OBSTRUCTIONS TO VISIBILITY.


SDZ001>005-009-010-012>017-231000-
NORTHWEST AND NORTH CENTRAL SOUTH DAKOTA

CITY           SKY/WX    TMP DP  RH WIND       PRES   REMARKS
BUFFALO          N/A     45  35  68 NE8       30.03
FAITH            N/A     45  38  76 SE13      30.08F
MOBRIDGE       CLEAR     41  33  73 SE7       30.10F
$$

SDZ012>016-024>037-041>051-057-063-072>074-231000-
SOUTHWEST AND SOUTH CENTRAL SOUTH DAKOTA

CITY           SKY/WX    TMP DP  RH WIND       PRES   REMARKS
RAPID CTY ARPT CLEAR     39  35  86 SE5       30.07F
PIERRE         CLEAR     39  35  86 CALM      30.12S
CUSTER         CLEAR     34  29  82 NW3       30.11F
ELLSWORTH AFB  CLEAR    N/A N/A N/A S5        30.07
PHILIP         CLEAR     43  36  76 CALM      30.10F
PINE RIDGE     CLEAR     45  37  73 S12       30.10F
SPEARFISH      FAIR      45  34  65 VRB3      30.06S
WINNER         FAIR      43  35  73 S8        30.15F
$$

SDZ004>011-016>023-039-040-231000-
NORTHEAST SOUTH DAKOTA

CITY           SKY/WX    TMP DP  RH WIND       PRES   REMARKS
ABERDEEN       CLEAR     37  35  92 S7        30.17F
WATERTOWN      CLEAR     39  35  86 S7        30.19S
BROOKINGS      CLEAR     36  34  92 CALM      30.20F
SISSETON         N/A     34  33  96 SE5       30.18S WCI  30
$$

SDZ017-020-022-023-036>040-048>070-231000-
SOUTHEAST SOUTH DAKOTA

CITY           SKY/WX    TMP DP  RH WIND       PRES   REMARKS
SIOUX FALLS    PTCLDY    37  33  85 NE5       30.20S
HURON            N/A     39  36  89 SE6       30.18S
CHAMBERLAIN    CLEAR     41  40  97 CALM      30.16S
MITCHELL       CLEAR     41  38  89 SE5       30.19S
YANKTON        CLEAR     39  37  92 E3        30.20R
$$

ABBREVIATIONS USED IN REMARKS
   TC - TEMPERATURE IN CELSIUS
  WCI - WIND CHILL INDEX
   HX - HEAT INDEX
  VSB - VISIBILITY





USA.gov is the U.S. government's official web portal to all federal, state and local government web resources and services.